CW8371 Weather Reports


Display with metric or nautical units.
time (UTC)temp
F
wind
direction
speed
MPH
gust
MPH
rain 1hr
in
rain 24hr
in
rain mn
in
humidity
%
barometer
mb
20191023095504 54 122 2.0 9.0 0.09 0.48 0.34 97 1007.1
20191023095003 54 121 1.0 7.0 0.08 0.47 0.33 97 1007.3
20191023094503 54 121 0.0 3.0 0.02 0.41 0.27 97 1007.0
20191023094004 54 121 0.0 3.0 0.00 0.39 0.25 97 1007.0
20191023093504 54 0 0.0 0.0 0.01 0.39 0.25 97 1006.9
20191023093004 54 0 0.0 0.0 0.01 0.39 0.25 97 1006.9
20191023092503 54 0 0.0 0.0 0.01 0.39 0.25 97 1006.9
20191023092003 54 0 0.0 0.0 0.01 0.39 0.25 97 1006.9
20191023091503 54 0 0.0 0.0 0.01 0.39 0.25 97 1007.0
20191023091003 54 0 0.0 0.0 0.01 0.39 0.25 97 1007.0
20191023090503 53 0 0.0 0.0 0.01 0.39 0.25 97 1007.0
20191023090004 54 0 0.0 0.0 0.01 0.39 0.25 97 1007.1
20191023085504 53 0 0.0 0.0 0.01 0.39 0.25 97 1007.1
20191023085004 53 0 0.0 0.0 0.01 0.39 0.25 97 1007.0
20191023084503 53 0 0.0 0.0 0.02 0.39 0.25 97 1007.2
20191023084003 53 0 0.0 0.0 0.02 0.39 0.25 97 1007.2
20191023083503 53 0 0.0 0.0 0.02 0.38 0.24 97 1007.2
20191023083010 53 0 0.0 0.0 0.02 0.38 0.24 97 1007.3
20191023082504 53 0 0.0 0.0 0.02 0.38 0.24 97 1007.5
20191023075003 53 0 0.0 0.0 0.03 0.37 0.23 97 1008.1
20191023074503 53 0 0.0 0.0 0.03 0.37 0.23 97 1008.3
20191023074003 53 0 0.0 0.0 0.04 0.36 0.22 97 1008.4
20191023073503 53 0 0.0 0.0 0.06 0.36 0.22 97 1008.3
20191023073003 53 0 0.0 0.0 0.07 0.36 0.22 97 1008.5
20191023072503 53 0 0.0 0.0 0.08 0.36 0.22 97 1008.6
20191023072003 53 0 0.0 0.0 0.08 0.36 0.22 97 1008.7
20191023071504 53 121 0.0 2.0 0.09 0.36 0.22 97 1008.9
20191023071003 53 121 0.0 2.0 0.10 0.36 0.22 97 1009.0
20191023070503 53 0 0.0 0.0 0.12 0.36 0.22 97 1008.9
20191023070003 53 0 0.0 0.0 0.12 0.35 0.21 97 1009.3
20191023065503 53 0 0.0 0.0 0.12 0.34 0.20 97 1009.4
20191023065004 53 0 0.0 0.0 0.13 0.34 0.20 97 1009.4
20191023064503 53 0 0.0 0.0 0.14 0.34 0.20 97 1009.4
20191023063504 53 121 0.0 3.0 0.11 0.30 0.16 97 1009.7
20191023063003 53 121 0.0 1.0 0.11 0.29 0.15 97 1009.7
20191023062503 53 121 0.0 2.0 0.11 0.28 0.14 97 1009.8
20191023062003 53 121 0.0 2.0 0.11 0.28 0.14 97 1009.6
20191023061503 53 0 0.0 0.0 0.10 0.27 0.13 97 1009.6
20191023061003 53 0 0.0 0.0 0.09 0.26 0.12 97 1009.7
20191023060503 53 0 0.0 0.0 0.07 0.24 0.10 97 1009.7
20191023060003 53 0 0.0 0.0 0.07 0.23 0.09 97 1009.9
20191023055503 53 0 0.0 0.0 0.06 0.22 0.08 96 1010.1
20191023055004 53 0 0.0 0.0 0.05 0.21 0.07 97 1010.1
20191023054503 53 0 0.0 0.0 0.04 0.21 0.06 97 1010.1
20191023054003 53 121 0.0 2.0 0.04 0.21 0.06 97 1010.3
20191023053503 53 121 0.0 2.0 0.03 0.20 0.05 97 1010.3
20191023053003 53 0 0.0 0.0 0.02 0.19 0.04 97 1010.3
20191023052503 53 0 0.0 0.0 0.01 0.18 0.03 97 1010.4
20191023052003 53 0 0.0 0.0 0.02 0.18 0.03 97 1010.7
20191023051503 53 0 0.0 0.0 0.02 0.18 0.03 96 1010.8
20191023051004 53 0 0.0 0.0 0.03 0.18 0.03 96 1010.9
20191023050503 53 0 0.0 0.0 0.03 0.18 0.03 96 1011.1
20191023050003 53 0 0.0 0.0 0.02 0.17 0.02 96 1011.2
20191023045503 53 0 0.0 0.0 0.02 0.17 0.02 96 1011.2
20191023045003 53 0 0.0 0.0 0.02 0.17 0.02 96 1011.3
20191023044503 53 0 0.0 0.0 0.03 0.17 0.02 96 1011.5
20191023044003 53 0 0.0 0.0 0.04 0.17 0.02 96 1011.5
20191023043504 53 0 0.0 0.0 0.04 0.17 0.02 96 1011.5
20191023043003 53 0 0.0 0.0 0.05 0.17 0.02 96 1011.8
20191023042503 53 0 0.0 0.0 0.05 0.17 0.02 96 1011.8
20191023042004 53 0 0.0 0.0 0.05 0.16 0.01 96 1012.0
20191023041503 53 0 0.0 0.0 0.05 0.16 0.01 96 1012.2
20191023041003 53 0 0.0 0.0 0.04 0.15 0.00 96 1012.3
20191023040504 53 0 0.0 0.0 0.05 0.15 0.00 96 1012.3
20191023040003 53 0 0.0 0.0 0.06 0.15 0.00 96 1012.4
20191023035503 53 0 0.0 0.0 0.06 0.15 0.15 96 1012.4
20191023035004 53 0 0.0 0.0 0.06 0.15 0.15 96 1012.3
20191023034546 53 0 0.0 0.0 0.06 0.14 0.14 96 1012.6
20191023034204 53 0 0.0 0.0 0.05 0.13 0.13 96 1013.0
20191023033003 53 0 0.0 0.0 0.05 0.12 0.12 96 1013.5
20191023032503 53 0 0.0 0.0 0.05 0.12 0.12 96 1013.6
20191023032003 53 0 0.0 0.0 0.04 0.11 0.11 96 1013.5
20191023031503 53 0 0.0 0.0 0.05 0.11 0.11 96 1013.4
20191023031003 53 0 0.0 0.0 0.05 0.11 0.11 96 1013.4
20191023030503 53 0 0.0 0.0 0.05 0.10 0.10 96 1013.4
20191023030003 53 0 0.0 0.0 0.04 0.09 0.09 96 1013.6
20191023025503 53 0 0.0 0.0 0.04 0.09 0.09 96 1013.6
20191023025004 53 0 0.0 0.0 0.04 0.09 0.09 96 1013.5
20191023024503 53 0 0.0 0.0 0.03 0.08 0.08 96 1013.6
20191023024003 53 0 0.0 0.0 0.04 0.08 0.08 96 1013.7
20191023023503 53 0 0.0 0.0 0.03 0.07 0.07 95 1013.7
20191023023003 53 0 0.0 0.0 0.03 0.07 0.07 95 1013.7
20191023022503 53 122 0.0 6.0 0.03 0.07 0.07 95 1013.8
20191023022003 53 122 0.0 6.0 0.03 0.07 0.07 95 1014.1
20191023021503 53 122 0.0 5.0 0.02 0.06 0.06 95 1014.0
20191023021003 53 123 0.0 6.0 0.02 0.06 0.06 95 1014.5
20191023020503 53 123 0.0 6.0 0.02 0.05 0.05 95 1014.1
20191023020003 53 123 0.0 3.0 0.02 0.05 0.05 95 1014.1
20191023015503 53 123 0.0 2.0 0.02 0.05 0.05 95 1014.3
20191023015003 53 123 0.0 3.0 0.02 0.05 0.05 95 1014.4
20191023014504 53 124 0.0 7.0 0.02 0.05 0.05 95 1014.6
20191023014004 53 125 0.0 7.0 0.02 0.04 0.04 95 1014.4
20191023013503 53 126 0.0 4.0 0.02 0.04 0.04 95 1014.6
20191023013004 53 126 1.0 4.0 0.02 0.04 0.04 95 1014.6
20191023012504 53 126 1.0 4.0 0.03 0.04 0.04 95 1014.6
20191023012003 53 126 0.0 3.0 0.03 0.04 0.04 95 1014.7
20191023011503 53 126 0.0 5.0 0.03 0.04 0.04 95 1014.8
20191023011004 53 126 1.0 5.0 0.03 0.04 0.04 95 1014.8
20191023010503 53 125 1.0 8.0 0.02 0.03 0.03 95 1014.7
20191023010003 53 125 1.0 8.0 0.02 0.03 0.03 95 1014.8
20191023005503 53 127 2.0 9.0 0.02 0.03 0.03 95 1014.8
20191023005003 53 129 1.0 11.0 0.02 0.03 0.03 95 1014.8
20191023004503 53 129 1.0 11.0 0.02 0.03 0.03 95 1015.1
20191023004003 53 130 2.0 8.0 0.01 0.02 0.02 95 1015.0
20191023003503 53 130 1.0 8.0 0.01 0.02 0.02 95 1015.0
20191023003003 53 127 1.0 8.0 0.01 0.02 0.02 95 1015.5
20191023002503 52 124 1.0 4.0 0.00 0.01 0.01 95 1015.6
20191023002003 52 123 0.0 4.0 0.00 0.01 0.01 95 1015.6
20191023001503 52 123 0.0 7.0 0.00 0.01 0.01 95 1015.9
20191023001004 52 123 0.0 7.0 0.00 0.01 0.01 95 1015.8
20191023000503 52 126 1.0 7.0 0.00 0.01 0.01 94 1015.9
20191023000003 52 126 2.0 10.0 0.00 0.01 0.01 94 1015.8
20191022235503 52 122 2.0 10.0 0.00 0.01 0.01 94 1015.6
20191022235004 52 116 1.0 10.0 0.00 0.01 0.01 94 1015.6
20191022234503 52 115 1.0 6.0 0.00 0.01 0.01 94 1015.5
20191022234003 52 115 0.0 3.0 0.00 0.01 0.01 94 1015.8
20191022233503 52 115 0.0 4.0 0.00 0.01 0.01 94 1016.1
20191022233003 52 115 0.0 7.0 0.00 0.01 0.01 93 1016.3
20191022232504 52 115 0.0 7.0 0.00 0.01 0.01 93 1016.5
20191022232003 52 115 0.0 4.0 0.00 0.01 0.01 93 1016.5
20191022231503 52 115 0.0 4.0 0.00 0.01 0.01 93 1016.8
20191022231003 52 0 0.0 0.0 0.00 0.01 0.01 93 1016.6
20191022230503 52 116 0.0 1.0 0.00 0.01 0.01 92 1016.9
20191022230003 52 115 0.0 7.0 0.00 0.01 0.01 92 1017.0
20191022225504 53 115 1.0 7.0 0.00 0.01 0.01 92 1023.8
20191022225003 53 114 0.0 6.0 0.00 0.01 0.01 91 1016.7
20191022224503 53 114 1.0 8.0 0.00 0.01 0.01 91 1016.5
20191022224003 53 112 1.0 9.0 0.00 0.01 0.01 90 1016.6
20191022223504 53 102 2.0 9.0 0.00 0.01 0.01 89 1016.6
20191022223003 54 97 2.0 8.0 0.00 0.01 0.01 89 1016.9
20191022222503 54 91 1.0 8.0 0.00 0.01 0.01 88 1017.2
20191022222003 54 91 1.0 8.0 0.00 0.01 0.01 88 1017.2
20191022221504 54 108 1.0 9.0 0.00 0.01 0.01 88 1017.2
20191022221003 54 126 2.0 10.0 0.00 0.01 0.01 87 1017.0
20191022220503 54 126 2.0 10.0 0.00 0.01 0.01 87 1017.1
20191022220003 54 111 1.0 7.0 0.00 0.01 0.01 87 1017.0
20191022215504 54 113 1.0 7.0 0.00 0.01 0.01 86 1017.1
20191022215003 54 112 1.0 9.0 0.00 0.01 0.01 86 1017.0
20191022214503 54 111 2.0 10.0 0.00 0.01 0.01 86 1017.0
20191022214003 54 113 2.0 10.0 0.00 0.01 0.01 86 1016.8
20191022213503 54 126 2.0 12.0 0.00 0.01 0.01 86 1016.8
20191022213003 54 131 1.0 12.0 0.00 0.01 0.01 86 1016.5
20191022212503 54 139 1.0 10.0 0.00 0.01 0.01 87 1016.7
20191022212003 54 145 2.0 10.0 0.00 0.01 0.01 87 1017.1
20191022211503 54 152 1.0 9.0 0.00 0.01 0.01 87 1017.5
20191022211004 54 160 0.0 4.0 0.00 0.01 0.01 86 1017.7
20191022210503 54 137 1.0 12.0 0.00 0.01 0.01 86 1017.5
20191022210003 55 116 3.0 12.0 0.00 0.01 0.01 86 1017.3
20191022205503 55 107 4.0 11.0 0.00 0.01 0.01 86 1017.0
20191022205004 55 115 4.0 12.0 0.00 0.01 0.01 85 1017.1
20191022204503 55 121 3.0 12.0 0.00 0.01 0.01 85 1016.9
20191022204003 55 120 1.0 12.0 0.00 0.01 0.01 85 1016.8
20191022203504 55 118 1.0 7.0 0.00 0.01 0.01 84 1017.0
20191022203003 55 116 3.0 14.0 0.00 0.01 0.01 84 1016.9
20191022202503 55 115 4.0 14.0 0.00 0.01 0.01 84 1017.1
20191022202003 55 113 3.0 12.0 0.00 0.01 0.01 83 1017.0
20191022201504 55 111 2.0 10.0 0.00 0.01 0.01 83 1017.0
20191022201003 56 100 1.0 7.0 0.00 0.01 0.01 83 1017.2
20191022200503 56 113 2.0 11.0 0.00 0.01 0.01 83 1017.2
20191022200003 56 107 5.0 15.0 0.00 0.01 0.01 82 1017.1
20191022195503 56 100 5.0 15.0 0.00 0.01 0.01 81 1017.1
20191022195003 56 98 2.0 11.0 0.00 0.01 0.01 81 1017.1
20191022194503 56 97 3.0 11.0 0.00 0.01 0.01 81 1017.4
20191022194003 56 110 3.0 10.0 0.00 0.01 0.01 80 1017.6
20191022193503 57 130 3.0 12.0 0.00 0.01 0.01 80 1017.9
20191022193004 57 116 2.0 12.0 0.00 0.01 0.01 80 1017.9
20191022192503 57 68 1.0 8.0 0.00 0.01 0.01 80 1018.0
20191022192003 57 65 2.0 10.0 0.00 0.01 0.01 80 1017.9
20191022191503 57 78 3.0 10.0 0.00 0.01 0.01 79 1018.0
20191022191004 58 105 2.0 10.0 0.00 0.01 0.01 79 1018.0
20191022190503 58 116 1.0 10.0 0.00 0.01 0.01 79 1018.1
20191022190003 58 119 1.0 7.0 0.00 0.01 0.01 78 1018.1
20191022185503 58 119 1.0 7.0 0.00 0.01 0.01 78 1018.1
20191022185003 58 122 1.0 6.0 0.00 0.01 0.01 78 1018.1
20191022184503 58 120 1.0 11.0 0.00 0.01 0.01 77 1018.3
20191022184003 58 113 1.0 11.0 0.00 0.01 0.01 77 1018.3
20191022183504 58 93 1.0 8.0 0.00 0.01 0.01 77 1018.3
20191022183003 58 85 2.0 8.0 0.00 0.01 0.01 76 1018.4
20191022182503 58 78 2.0 8.0 0.00 0.01 0.01 76 1018.3
20191022182004 58 70 1.0 8.0 0.00 0.01 0.01 77 1018.5
20191022181503 58 68 2.0 8.0 0.00 0.01 0.01 77 1018.5
20191022181003 58 67 2.0 8.0 0.00 0.01 0.01 77 1018.7
20191022180503 58 70 2.0 8.0 0.00 0.01 0.01 76 1018.9
20191022180004 59 77 2.0 8.0 0.00 0.01 0.01 76 1018.9
20191022175503 59 80 2.0 8.0 0.00 0.01 0.01 77 1018.8
20191022175003 59 79 2.0 8.0 0.00 0.01 0.01 77 1018.9
20191022174503 58 80 1.0 8.0 0.00 0.01 0.01 78 1018.9
20191022174004 58 75 0.0 7.0 0.00 0.01 0.01 77 1019.1
20191022173503 58 75 1.0 7.0 0.00 0.01 0.01 77 1019.1
20191022173004 59 75 0.0 4.0 0.00 0.01 0.01 77 1019.3
20191022172503 59 75 0.0 4.0 0.00 0.01 0.01 77 1019.3
20191022172004 59 75 1.0 7.0 0.00 0.01 0.01 76 1019.4
20191022171503 59 81 1.0 8.0 0.00 0.01 0.01 76 1019.3
20191022171003 59 91 1.0 8.0 0.00 0.01 0.01 76 1019.1
20191022170503 59 107 1.0 9.0 0.00 0.01 0.01 76 1019.4
20191022170004 59 108 2.0 9.0 0.00 0.01 0.01 76 1019.2
20191022165503 59 109 1.0 9.0 0.00 0.01 0.01 76 1019.3
20191022165003 58 112 2.0 11.0 0.00 0.01 0.01 77 1019.5
20191022164503 58 113 3.0 11.0 0.00 0.01 0.01 77 1019.5
20191022164004 58 127 2.0 9.0 0.00 0.01 0.01 77 1019.5
20191022163504 58 134 1.0 9.0 0.00 0.01 0.01 78 1019.6
20191022163003 58 135 0.0 5.0 0.00 0.01 0.01 79 1019.5
20191022162503 58 138 1.0 7.0 0.00 0.01 0.01 78 1019.5
20191022162003 58 139 1.0 7.0 0.00 0.01 0.01 79 1019.7
20191022161503 58 122 1.0 10.0 0.00 0.01 0.01 81 1019.8
20191022161004 57 121 2.0 10.0 0.00 0.01 0.01 80 1019.7
20191022160504 57 115 1.0 10.0 0.00 0.01 0.01 81 1019.8
20191022160004 56 100 2.0 10.0 0.00 0.01 0.01 82 1019.9
20191022155504 56 96 2.0 8.0 0.00 0.01 0.01 83 1019.9
20191022155003 56 102 1.0 8.0 0.00 0.01 0.01 85 1019.8
20191022154503 55 105 1.0 4.0 0.00 0.01 0.01 85 1019.9
20191022154003 55 107 1.0 7.0 0.00 0.01 0.01 85 1019.9
20191022153503 55 109 1.0 10.0 0.00 0.01 0.01 85 1019.9
20191022153003 55 106 2.0 10.0 0.00 0.01 0.01 86 1020.1
20191022152503 54 94 2.0 9.0 0.00 0.01 0.01 86 1020.0
20191022152003 54 90 2.0 9.0 0.00 0.01 0.01 87 1019.8
20191022151504 54 100 2.0 8.0 0.00 0.01 0.01 88 1019.9
20191022151003 54 106 2.0 8.0 0.00 0.01 0.01 88 1020.0
20191022150503 53 97 1.0 10.0 0.00 0.01 0.01 91 1020.1
20191022150003 53 102 2.0 10.0 0.00 0.01 0.01 91 1020.1
20191022145503 52 101 2.0 10.0 0.00 0.01 0.01 92 1020.0
20191022145004 51 87 2.0 11.0 0.00 0.01 0.01 93 1020.0
20191022144503 51 94 3.0 11.0 0.00 0.01 0.01 94 1020.4
20191022144003 51 98 3.0 10.0 0.00 0.01 0.01 96 1020.1
20191022143503 50 98 3.0 10.0 0.00 0.01 0.01 97 1020.0
20191022143003 49 103 2.0 9.0 0.00 0.01 0.01 97 1019.9
20191022142504 48 148 0.0 1.0 0.00 0.01 0.01 97 1020.0
20191022142003 48 0 0.0 0.0 0.00 0.01 0.01 97 1020.2
20191022141503 47 0 0.0 0.0 0.00 0.01 0.01 97 1020.5
20191022141003 47 0 0.0 0.0 0.00 0.01 0.01 97 1020.5
20191022140503 46 0 0.0 0.0 0.00 0.01 0.01 97 1020.5
20191022140004 46 0 0.0 0.0 0.00 0.01 0.01 97 1020.8
20191022135503 46 0 0.0 0.0 0.00 0.01 0.01 97 1020.9
20191022135003 45 0 0.0 0.0 0.00 0.01 0.01 97 1020.9
20191022134503 45 0 0.0 0.0 0.00 0.01 0.01 96 1021.1
20191022134003 44 0 0.0 0.0 0.00 0.01 0.01 97 1021.3
20191022133503 44 0 0.0 0.0 0.00 0.01 0.01 97 1021.5
20191022133003 44 0 0.0 0.0 0.00 0.01 0.01 97 1021.7
20191022132503 44 148 0.0 2.0 0.00 0.01 0.01 97 1021.5
20191022132004 44 148 0.0 2.0 0.00 0.01 0.01 97 1021.7
20191022131503 44 148 0.0 2.0 0.00 0.01 0.01 97 1021.8
20191022131003 44 0 0.0 0.0 0.00 0.01 0.01 97 1021.7
20191022130503 44 0 0.0 0.0 0.00 0.01 0.01 97 1021.5
20191022130003 43 0 0.0 0.0 0.00 0.01 0.01 97 1021.4
20191022125503 43 148 0.0 1.0 0.00 0.01 0.01 97 1021.6
20191022125003 43 148 0.0 1.0 0.00 0.01 0.01 97 1021.5
20191022124504 43 0 0.0 0.0 0.00 0.01 0.01 96 1021.8
20191022124003 43 0 0.0 0.0 0.00 0.01 0.01 96 1021.9
20191022123504 42 0 0.0 0.0 0.00 0.01 0.01 97 1021.8
20191022123004 42 0 0.0 0.0 0.00 0.01 0.01 97 1021.5
20191022122503 42 0 0.0 0.0 0.00 0.01 0.01 97 1021.3
20191022122003 42 0 0.0 0.0 0.00 0.01 0.01 97 1021.2
20191022121503 42 0 0.0 0.0 0.00 0.01 0.01 96 1021.1
20191022121003 42 0 0.0 0.0 0.00 0.01 0.01 96 1021.1
20191022120503 42 0 0.0 0.0 0.00 0.01 0.01 96 1021.2
20191022120003 42 0 0.0 0.0 0.00 0.01 0.01 96 1021.0
20191022115503 42 0 0.0 0.0 0.00 0.01 0.01 96 1020.9
20191022115003 42 0 0.0 0.0 0.00 0.01 0.01 96 1020.9
20191022114503 41 0 0.0 0.0 0.00 0.01 0.01 96 1020.8
20191022114003 41 0 0.0 0.0 0.00 0.01 0.01 96 1020.5
20191022113504 41 0 0.0 0.0 0.00 0.01 0.01 96 1020.3
20191022113003 41 0 0.0 0.0 0.00 0.01 0.01 96 1020.7
20191022112503 41 0 0.0 0.0 0.00 0.01 0.01 96 1020.5
20191022112004 41 0 0.0 0.0 0.00 0.01 0.01 96 1020.5
20191022111504 41 0 0.0 0.0 0.00 0.01 0.01 96 1020.8
20191022111003 42 0 0.0 0.0 0.00 0.01 0.01 96 1020.8
20191022110503 41 0 0.0 0.0 0.00 0.01 0.01 96 1020.8
20191022110004 41 0 0.0 0.0 0.00 0.01 0.01 96 1020.8
20191022105504 41 0 0.0 0.0 0.00 0.01 0.01 96 1020.7
20191022105004 41 0 0.0 0.0 0.00 0.01 0.01 96 1020.6
20191022104503 41 0 0.0 0.0 0.00 0.01 0.01 96 1020.5
20191022104004 41 0 0.0 0.0 0.00 0.01 0.01 96 1020.5
20191022103503 41 0 0.0 0.0 0.00 0.01 0.01 96 1020.5
20191022103003 41 0 0.0 0.0 0.00 0.01 0.01 96 1020.3
20191022102503 41 0 0.0 0.0 0.00 0.01 0.01 96 1020.4
20191022102003 41 0 0.0 0.0 0.00 0.01 0.01 96 1020.6
20191022101504 41 0 0.0 0.0 0.00 0.01 0.01 96 1020.5
20191022101003 41 0 0.0 0.0 0.00 0.01 0.01 96 1020.3
20191022100503 41 0 0.0 0.0 0.00 0.01 0.01 96 1020.3
20191022100004 41 0 0.0 0.0 0.00 0.01 0.01 96 1020.5